www.pogodaiklimat.ru

Погода и климат >> Архив погоды >> Австралия >> Северная территория >> Аэропорт Макартур Ривер Майн


ПОГОДА в Аэропорту Макартур Ривер Майн

  • Прогноз погоды в Аэропорту Макартур Ривер Майн
  • Монитор погоды в Аэропорту Макартур Ривер Майн

АРХИВ ПОГОДЫ в Аэропорту Макартур Ривер Майн

Время (UTC), дата Ветер
(напр.,м/с)
 
Видим.   Явления Облачность Т
(С)
Тd
(С)
f
(%)
Тe
(С)
Тes
(С)
Комфортность P
(гПа)
Po
(гПа)
Тmin
(С)
Tmax
(С)
R
(мм)
R24
(мм)
S
(см)
20 16.07 ЮЗ 2 н/о н/о +9.1 +0.8 56 +8 +8 1017.1 1012.3
23 16.07 Ю 2 н/о н/о +16.1 -0.6 32 +17 +17 1018.6 1013.8
05 17.07 ЮВ 3 н/о н/о +27.6 -3.3 13 +25 +25 комфорт 1015.1 1010.3
08 17.07 В 3 н/о н/о +27.5 -4.4 12 +25 +25 комфорт 1014.6 1009.8
11 17.07 С 2 н/о н/о +19.1 +1.6 31 +20 +20 1016.3 1011.5
14 17.07 ЮЗ 2 н/о н/о +13.8 +3.6 50 +13 +13 1016.8 1012.0 +28.9
17 17.07 штиль 0 н/о н/о +10.5 +3.5 62 +10 +10 1016.0 1011.2
20 17.07 штиль 0 н/о н/о +8.8 +2.8 66 +8 +8 1016.5 1011.7
23 17.07 ЮЗ 2 н/о н/о +15.0 +2.2 42 +15 +15 1017.7 1012.9
02 18.07 В 4 н/о н/о +27.0 -3.7 13 +24 +24 комфорт 1016.9 1012.1 +7.6
05 18.07 В 4 н/о н/о +30.5 -4.5 10 +27 +27 жарко 1014.1 1009.3
08 18.07 В 2 н/о н/о +29.8 -3.8 11 +26 +26 жарко 1013.6 1008.8
11 18.07 С 3 н/о н/о +21.9 +2.1 27 +22 +22 комфорт 1015.6 1010.8
14 18.07 З 2 н/о н/о +14.3 +3.2 47 +14 +14 1016.7 1011.9 +31.3
17 18.07 штиль 0 н/о н/о +11.5 +3.8 59 +11 +11 1016.1 1011.3
20 18.07 штиль 0 н/о н/о +9.1 +3.7 69 +9 +9 1016.5 1011.7
23 18.07 штиль 0 н/о н/о +14.9 +4.0 48 +15 +15 1018.1 1013.3
02 19.07 В 4 н/о н/о +27.3 -5.7 11 +24 +24 комфорт 1017.2 1012.4 +8.1
05 19.07 Ю 3 н/о н/о +29.9 -3.7 11 +27 +27 жарко 1013.9 1009.1
08 19.07 СВ 2 н/о н/о +29.8 -3.8 11 +26 +26 жарко 1013.7 1008.9
11 19.07 СВ 4 н/о н/о +22.7 -0.7 21 +22 +22 комфорт 1015.8 1011.0
14 19.07 ЮВ 3 н/о н/о +15.0 +2.2 42 +15 +15 1016.9 1012.1 +31.4
17 19.07 штиль 0 н/о н/о +10.9 +2.2 55 +11 +11 1016.1 1011.3
20 19.07 штиль 0 н/о н/о +8.3 +2.8 68 +8 +8 1016.3 1011.5
23 19.07 ЮЗ 1 н/о н/о +14.1 +3.3 48 +15 +15 1018.0 1013.2
02 20.07 В 4 н/о н/о +27.8 -4.2 12 +25 +25 комфорт 1017.0 1012.2 +6.8
05 20.07 В 3 н/о н/о +30.5 -5.9 9 +27 +27 жарко 1014.1 1009.3
08 20.07 В 1 н/о н/о +30.1 -7.7 8 +26 +26 жарко 1013.4 1008.6
11 20.07 СВ 4 н/о н/о +22.8 +1.2 24 +22 +22 комфорт 1015.3 1010.5
14 20.07 штиль 0 н/о н/о +15.2 +2.7 43 +15 +15 1015.5 1010.7 +31.4
17 20.07 З 2 н/о н/о +10.2 +2.3 58 +9 +9 1015.4 1010.6
20 20.07 штиль 0 н/о н/о +8.9 +3.3 68 +8 +8 1015.5 1010.7
23 20.07 штиль 0 н/о н/о +14.8 +4.8 51 +15 +15 1016.3 1011.5
02 21.07 В 3 н/о н/о +27.2 +6.6 27 +27 +27 жарко 1015.2 1010.4 +8.4
05 21.07 В 2 н/о н/о +31.1 -4.1 10 +27 +27 жарко 1012.1 1007.3
08 21.07 В 2 н/о н/о +30.3 -4.7 10 +27 +27 жарко 1011.5 1006.7
11 21.07 СВ 3 н/о н/о +22.4 +4.5 31 +23 +23 комфорт 1013.8 1009.0
14 21.07 штиль 0 н/о н/о +16.8 +8.8 59 +17 +17 1014.8 1010.0 +32.1
17 21.07 штиль 0 н/о 10/10 <50 м
[]
+15.6 +12.0 79 +15 +15 1014.4 1009.6
20 21.07 ЮЗ 2 500 м 10/10 <50 м
[]
+15.7 +15.2 97 +16 +16 1014.5 1009.7
23 21.07 ЮЗ 2 500 м 10/10 <50 м
[]
+16.7 +16.4 98 +17 +17 1015.9 1011.1
02 22.07 ЮВ 1 н/о н/о +26.1 +12.2 42 +28 +28 жарко 1015.4 1010.6 +12.7
05 22.07 ЮВ 4 н/о н/о +31.4 -0.3 13 +28 +28 жарко 1012.5 1007.7
08 22.07 ЮВ 4 н/о н/о +30.6 -3.2 11 +27 +27 жарко 1012.3 1007.5
11 22.07 СВ 3 н/о н/о +23.2 +2.7 26 +23 +23 комфорт 1014.9 1010.1
14 22.07 штиль 0 н/о н/о +15.6 +5.2 50 +16 +16 1015.6 1010.8 +32.4
17 22.07 СЗ 2 н/о н/о +11.2 +3.5 59 +11 +11 1015.3 1010.5
20 22.07 штиль 0 н/о н/о +9.7 +3.9 67 +9 +9 1016.0 1011.2
23 22.07 штиль 0 н/о н/о +16.0 +4.7 47 +16 +16 1017.8 1013.0
02 23.07 В 6 н/о н/о +30.7 -4.4 10 +27 +27 жарко 1016.7 1011.9 +8.8
05 23.07 ЮВ 4 н/о н/о +32.4 -7.8 7 +28 +28 жарко 1014.2 1009.4
08 23.07 В 4 н/о н/о +31.1 -7.0 8 +27 +27 жарко 1013.9 1009.1
11 23.07 СВ 3 н/о н/о +21.7 +0.8 25 +21 +21 комфорт 1016.1 1011.3
14 23.07 З 1 н/о н/о +14.7 +2.9 45 +15 +15 1016.8 1012.0 +33.2
17 23.07 ЮВ 1 н/о н/о +13.5 +3.6 51 +14 +14 1016.7 1011.9

 

Местоположение метеостанции Аэропорт Макартур Ривер Майн (Северная территория, Австралия): широта -16.43 долгота 136.07 высота над уровнем моря 41 м.

В архиве по умолчанию представлена погода в Аэропорту Макартур Ривер Майн за последнюю неделю. Архивные данные за месяц целиком и за предыдущие месяцы, начиная с января 2011 года, Вы можете получить, выбрав интересующий диапазон дат из раскрывающегося списка и нажав кнопку "Ввод!".


*Определитесь, кто Вы:
робот инопланетянин человек

Внимание! Время в таблицах - всемирное. Для получения местного времени необходимо прибавить поправку, которая равна 9.5 ч.

Смотрите также архив погоды в соседних городах и на ближайших метеорологических станциях:

Погода в Борролооле (Северная территория, Австралия) (46 км)
Погода на Острове Центр (Северная территория, Австралия) (109 км)
Погода в Аэропорту Грут-Айленд (Северная территория, Австралия) (276 км)
Погода в Дейли Уотерс (Северная территория, Австралия) (289 км)
Погода на Острове Северо-восточный (Северная территория, Австралия) (323 км)
Погода на Острове Морнингтон (Квинсленд, Австралия) (332 км)
Погода в Булман Уимол (Северная территория, Австралия) (359 км)
Погода на Руднике Century Mine (Квинсленд, Австралия) (380 км)
Погода в Беркетауне (Квинсленд, Австралия) (396 км)
Погода в Теннант-Крике (Северная территория, Австралия) (408 км)

Пояснения к столбцам:

Ветер - указаны скорость ветра в м/с - средняя за 10 мин, порывы в срок и между сроками (в фигурных скобках) и направление, откуда дует ветер: С - северный, СВ - северо-восточный, В - восточный, ЮВ - юго-восточный, Ю - южный, ЮЗ - юго-западный, З - западный, СЗ - северо-западный.
Видимость - горизонтальная дальность видимости в метрах или километрах. При видимости от 1 до 10 км при отсутствии осадков обычно наблюдается дымка, при ухудшении видимости до 1 км и менее - туман. В сухую погоду видимость может ухудшаться дымом, пылью или мглою.
Явления - указаны атмосферные явления, наблюдавшиеся в срок или в последний час перед сроком; фигурными скобками обозначены явления, наблюдавшиеся между сроками (за 1-3 часа до срока); квадратными скобками обозначены град или гололедные отложения с указанием их диаметра в мм.
Облачность - указаны через наклонную черту общая и нижняя облачность в баллах и высота нижней границы облаков в метрах; квадратными скобками обозначены формы облаков: Ci - перистые, Cs - перисто-слоистые, Cc - перисто-кучевые, Ac - высококучевые, As - высокослоистые, Sc - слоисто-кучевые, Ns - слоисто-дождевые, Cu - кучевые, Cb - кучево-дождевые. Подробнее классификацию облаков см. в Атласе облаков (PDF).
T - Температура воздуха - температура, измеренная на высоте 2 м над землей.
Td - Температура точки росы - температура, при понижении до которой содержащийся в воздухе водяной пар достигнет насыщения.
f - Относительная влажность воздуха - влажноcть воздуха, измеренная на высоте 2 м над землей.
Te - Эффективная температура - температура, которую ощущает одетый по сезону человек в тени. Характеристика душности погоды. При расчете учитывается влияние влажности воздуха и скорости ветра на теплоощущения человека.
Tes - Эффективная температура на солнце - температура, которую ощущает человек, с поправкой на солнечный нагрев. Характеристика знойности погоды. Зависит от высоты солнца над горизонтом, облачности и скорости ветра. Ночью, в пасмурную погоду, а также при ветре 12 м/с и более поправка равна нулю.
P - Атмосферное давление - приведенное к уровню моря атмосферное давление.
Po - Атмосферное давление - измеренное на уровне метеостанции атмосферное давление.
Tmin - Минимальная температура - минимум температуры воздуха на высоте 2 м над землей.
Tmax - Максимальная температура - максимум температуры воздуха на высоте 2 м над землей.
R - Количество осадков - Количество выпавших осадков за период времени, мм. При наведении курсора мыши на число - период времени, за который выпало указанное количество осадков.
R24 - Количество осадков - Количество выпавших осадков за 24 часа, мм.
S - Снежный покров - Высота снежного покрова, см. При наведении курсора мыши на число - состояние снежного покрова и степень покрытия местности в баллах.